TJS-22

Last updated on Fri Dec 12 2025 00:02:09 GMT+0000 (Coordinated Universal Time)

1 66990U 25290A 25344.29968571 -.00000038 00000+0 79788-1 0 9994 2 66990 20.1261 301.1464 6664534 180.6877 177.6237 2.15443148 32
UTC large
Height (km)
Speed (km/s)
/
Latitude / Longitude
Inclination (degrees)
Orbital Period (minutes)
Azimuth
Elevation
Range (km)
Doppler Factor

Next 0 passes for location: London (51.5072 / 0.1276)

Sorry there are no passes over London.